| time (UTC) | temp F | wind direction | speed knots | gust knots | rain 1hr in | rain 24hr in | rain mn in | humidity % | barometer mb |
| 20260508070202 | 38 | 196 | 1.7 | 4.3 | 0.00 | 0.00 | 0.00 | 77 | 1004.5 |
| 20260508060702 | 40 | 303 | 0.9 | 2.6 | 0.00 | 0.00 | 0.00 | 74 | 1004.4 |
| 20260508060202 | 40 | 256 | 0.9 | 4.3 | 0.00 | 0.00 | 0.00 | 74 | 1004.4 |
| 20260508053703 | 40 | 242 | 2.6 | 7.0 | 0.00 | 0.00 | 0.00 | 74 | 1004.4 |
| 20260508043702 | 41 | 250 | 1.7 | 4.3 | 0.00 | 0.00 | 0.00 | 74 | 1004.3 |
| 20260508030204 | 43 | 243 | 4.3 | 8.7 | 0.00 | 0.00 | 0.00 | 70 | 1004.0 |
| 20260508023703 | 45 | 253 | 1.7 | 5.2 | 0.00 | 0.00 | 0.00 | 67 | 1003.9 |
| 20260508020703 | 46 | 247 | 2.6 | 7.0 | 0.00 | 0.00 | 0.00 | 66 | 1003.8 |
| 20260508020203 | 46 | 257 | 2.6 | 7.8 | 0.00 | 0.00 | 0.00 | 65 | 1003.8 |
| 20260508010703 | 48 | 284 | 1.7 | 7.0 | 0.00 | 0.00 | 0.00 | 61 | 1003.4 |
| 20260508003704 | 49 | 260 | 1.7 | 6.1 | 0.00 | 0.00 | 0.00 | 58 | 1003.1 |
| 20260507233704 | 50 | 274 | 0.9 | 5.2 | 0.00 | 0.00 | 0.00 | 59 | 1002.4 |
| 20260507233204 | 50 | 290 | 1.7 | 7.0 | 0.00 | 0.00 | 0.00 | 58 | 1002.3 |
| 20260507230203 | 51 | 304 | 2.6 | 11.3 | 0.00 | 0.00 | 0.00 | 56 | 1002.3 |
| 20260507220203 | 52 | 248 | 2.6 | 7.8 | 0.00 | 0.00 | 0.00 | 53 | 1002.0 |
| 20260507213704 | 52 | 236 | 3.5 | 7.0 | 0.00 | 0.00 | 0.00 | 52 | 1002.0 |
| 20260507210704 | 53 | 236 | 2.6 | 5.2 | 0.00 | 0.00 | 0.00 | 51 | 1001.8 |
| 20260507203204 | 54 | 274 | 1.7 | 7.8 | 0.00 | 0.00 | 0.00 | 52 | 1001.6 |
| 20260507200204 | 54 | 281 | 3.5 | 8.7 | 0.00 | 0.00 | 0.00 | 52 | 1001.6 |
| 20260507193204 | 54 | 284 | 2.6 | 10.4 | 0.00 | 0.00 | 0.00 | 50 | 1001.7 |
| 20260507190704 | 54 | 271 | 4.3 | 10.4 | 0.00 | 0.00 | 0.00 | 50 | 1001.7 |
| 20260507190204 | 54 | 240 | 4.3 | 8.7 | 0.00 | 0.00 | 0.00 | 49 | 1001.7 |
| 20260507183704 | 54 | 252 | 5.2 | 8.7 | 0.00 | 0.00 | 0.00 | 52 | 1001.9 |
| 20260507180204 | 55 | 244 | 4.3 | 12.2 | 0.00 | 0.00 | 0.00 | 52 | 1001.8 |
| 20260507163205 | 56 | 259 | 6.1 | 11.3 | 0.00 | 0.00 | 0.00 | 49 | 1002.3 |
| 20260507160704 | 57 | 263 | 5.2 | 10.4 | 0.00 | 0.00 | 0.00 | 49 | 1002.6 |
| 20260507160205 | 57 | 285 | 2.6 | 10.4 | 0.00 | 0.00 | 0.00 | 51 | 1002.7 |
| 20260507150704 | 54 | 250 | 1.7 | 2.6 | 0.00 | 0.00 | 0.00 | 59 | 1003.5 |
| 20260507150205 | 53 | 289 | 2.6 | 7.8 | 0.00 | 0.00 | 0.00 | 60 | 1003.5 |
| 20260507143207 | 50 | 262 | 2.6 | 7.0 | 0.00 | 0.00 | 0.00 | 61 | 1003.6 |
| 20260507133221 | 48 | 255 | 2.6 | 5.2 | 0.00 | 0.00 | 0.00 | 66 | 1003.6 |
| 20260507130703 | 46 | 272 | 0.9 | 2.6 | 0.00 | 0.00 | 0.00 | 68 | 1003.7 |
| 20260507123703 | 45 | 263 | 0.9 | 2.6 | 0.00 | 0.00 | 0.00 | 74 | 1004.1 |
| 20260507113704 | 41 | 38 | 0.0 | 0.9 | 0.00 | 0.00 | 0.00 | 82 | 1004.1 |
| 20260507110703 | 40 | 40 | 0.9 | 2.6 | 0.00 | 0.00 | 0.00 | 84 | 1004.2 |
| 20260507103704 | 39 | 291 | 0.0 | 1.7 | 0.00 | 0.00 | 0.00 | 87 | 1004.4 |
| 20260507103204 | 39 | 233 | 0.0 | 2.6 | 0.00 | 0.00 | 0.00 | 89 | 1004.4 |
| 20260507100204 | 39 | 261 | 0.0 | 2.6 | 0.00 | 0.00 | 0.00 | 92 | 1004.3 |
| 20260507080700 | 39 | 5 | 0.0 | 0.0 | 0.00 | 0.00 | 0.00 | 91 | 1004.1 |
| 20260507080201 | 39 | 5 | 0.0 | 2.6 | 0.00 | 0.00 | 0.00 | 91 | 1004.1 |
| 20260507073200 | 39 | 25 | 0.9 | 0.9 | 0.00 | 0.00 | 0.00 | 91 | 1004.0 |